Weather History for Warrensburg, MO

Change the Weather History Date:

Tuesday, July 30, 2013

  Actual Average (KSZL) Record (KSZL)
Temperature  
Mean Temperature 74 °F -  
Max Temperature 80 °F 86 °F 102 °F (1999)
Min Temperature 69 °F 68 °F 57 °F (1997)
Cooling Degree Days 10    
Growing Degree Days 24 (Base 50)    
Moisture  
Dew Point 70 °F    
Average Humidity 88    
Maximum Humidity 94    
Minimum Humidity 74    
Precipitation  
Precipitation 0.00 in - - ()
Sea Level Pressure  
Sea Level Pressure 30.01 in    
Wind  
Wind Speed 0 mph (North)    
Max Wind Speed 0 mph    
Max Gust Speed -    
Visibility 9 miles    
Events Rain    
Averages and records for this station are not official NWS values.
T = Trace of Precipitation, MM = Missing Value Source: NWS Daily Summary

Daily Weather History Graph

Daily Weather History Graph

Search for Another Location

Airport:

Trip Planner

Search our weather history database for the weather conditions in past years. The results will help you decide how hot, cold, wet, or windy it might be!

Date:

Astronomy

Jul. 30, 2013 Rise Set
Actual Time 6:14 AM CDT 8:27 PM CDT
Civil Twilight 5:45 AM CDT 8:57 PM CDT
Nautical Twilight 5:08 AM CDT 9:33 PM CDT
Astronomical Twilight 4:28 AM CDT 10:13 PM CDT
Moon 12:32 AM CDT (7/30) 2:48 PM CDT (7/30)
Length of Visible Light 15h 12m
Length of Day
14h 12m
Last Quarter, 41% of the Moon is Illuminated
Jul 30
Last Quarter
Aug 6
New
Aug 14
First Quarter
Aug 20
Full
Aug 28
Last Quarter

Hourly Weather History & Observations

Time (CDT) Temp. Heat Index Dew Point Humidity Pressure Visibility Wind Dir Wind Speed Gust Speed Precip Events Conditions
12:15 AM 69.8 °F - 68.0 °F 94% 30.01 in 10.0 mi Calm Calm - N/A   Mostly Cloudy
12:35 AM 69.8 °F - 68.0 °F 94% 30.01 in 10.0 mi Calm Calm - N/A   Scattered Clouds
12:55 AM 69.8 °F - 68.0 °F 94% 30.01 in 10.0 mi Calm Calm - N/A   Clear
1:15 AM 69.8 °F - 68.0 °F 94% 30.01 in 10.0 mi Calm Calm - N/A   Clear
1:35 AM 69.8 °F - 68.0 °F 94% 30.01 in 10.0 mi Calm Calm - N/A   Scattered Clouds
1:55 AM 69.8 °F - 68.0 °F 94% 30.00 in 10.0 mi Calm Calm - N/A   Scattered Clouds
2:15 AM 69.8 °F - 68.0 °F 94% 30.00 in 10.0 mi Calm Calm - N/A   Mostly Cloudy
2:35 AM 69.8 °F - 68.0 °F 94% 29.99 in 10.0 mi Calm Calm - N/A   Mostly Cloudy
2:55 AM 69.8 °F - 68.0 °F 94% 29.99 in 10.0 mi Calm Calm - N/A   Clear
3:15 AM 69.8 °F - 68.0 °F 94% 30.00 in 10.0 mi Calm Calm - N/A   Mostly Cloudy
3:35 AM 69.8 °F - 68.0 °F 94% 30.00 in 10.0 mi Calm Calm - N/A   Overcast
3:55 AM 69.8 °F - 68.0 °F 94% 30.00 in 10.0 mi Calm Calm - N/A   Overcast
4:15 AM 69.8 °F - 68.0 °F 94% 30.00 in 10.0 mi Calm Calm - N/A   Overcast
4:35 AM 69.8 °F - 68.0 °F 94% 30.00 in 10.0 mi Calm Calm - N/A   Overcast
4:55 AM 69.8 °F - 68.0 °F 94% 30.00 in 7.0 mi Calm Calm - N/A   Overcast
5:15 AM 69.8 °F - 68.0 °F 94% 29.99 in 7.0 mi Calm Calm - N/A   Mostly Cloudy
5:35 AM 69.8 °F - 68.0 °F 94% 29.99 in 10.0 mi Calm Calm - N/A   Overcast
5:55 AM 71.6 °F - 68.0 °F 88% 30.00 in 10.0 mi Calm Calm - N/A   Overcast
6:15 AM 71.6 °F - 68.0 °F 88% 30.00 in 10.0 mi Calm Calm - N/A   Overcast
6:35 AM 71.6 °F - 68.0 °F 88% 30.01 in 10.0 mi Calm Calm - N/A   Overcast
6:55 AM 71.6 °F - 68.0 °F 88% 30.01 in 10.0 mi Calm Calm - N/A   Overcast
7:15 AM 71.6 °F - 68.0 °F 88% 30.02 in 10.0 mi Calm Calm - N/A   Overcast
7:35 AM 71.6 °F - 68.0 °F 88% 30.01 in 10.0 mi Calm Calm - N/A Rain Light Rain
8:15 AM 71.6 °F - 69.8 °F 94% 30.01 in 10.0 mi Calm Calm - N/A Rain Light Rain
8:35 AM 71.6 °F - 69.8 °F 94% 30.02 in 10.0 mi Calm Calm - N/A   Overcast
8:55 AM 71.6 °F - 69.8 °F 94% 30.01 in 10.0 mi Calm Calm - N/A   Overcast
9:15 AM 71.6 °F - 69.8 °F 94% 30.01 in 10.0 mi Calm Calm - N/A   Overcast
9:35 AM 73.4 °F - 69.8 °F 88% 30.01 in 10.0 mi Calm Calm - N/A   Overcast
9:55 AM 73.4 °F - 69.8 °F 88% 30.01 in 10.0 mi Calm Calm - N/A   Overcast
10:15 AM 73.4 °F - 69.8 °F 88% 30.01 in 10.0 mi Calm Calm - N/A   Overcast
10:35 AM 73.4 °F - 69.8 °F 88% 30.01 in 10.0 mi Calm Calm - N/A   Overcast
10:55 AM 73.4 °F - 69.8 °F 88% 30.02 in 10.0 mi Calm Calm - N/A   Overcast
11:15 AM 73.4 °F - 69.8 °F 88% 30.02 in 10.0 mi Calm Calm - N/A   Overcast
11:35 AM 73.4 °F - 69.8 °F 88% 30.02 in 10.0 mi Calm Calm - N/A Rain Light Rain
11:55 AM 73.4 °F - 69.8 °F 88% 30.02 in 10.0 mi Calm Calm - N/A   Overcast
12:15 PM 73.4 °F - 71.6 °F 94% 30.02 in 5.0 mi Calm Calm - N/A   Light Drizzle
12:35 PM 73.4 °F - 71.6 °F 94% 30.01 in 2.5 mi Calm Calm - N/A   Drizzle
1:15 PM 77.0 °F - 71.6 °F 83% 30.01 in 10.0 mi Calm Calm - N/A   Overcast
1:35 PM 77.0 °F - 71.6 °F 83% 30.01 in 10.0 mi Calm Calm - N/A   Overcast
1:55 PM 77.0 °F - 71.6 °F 83% 30.00 in 10.0 mi Calm Calm - N/A   Overcast
2:15 PM 80.6 °F 84.6 °F 71.6 °F 74% 30.00 in 10.0 mi Calm Calm - N/A   Overcast
2:35 PM 77.0 °F - 71.6 °F 83% 30.00 in 10.0 mi Calm Calm - N/A   Overcast
2:55 PM 77.0 °F - 71.6 °F 83% 30.00 in 10.0 mi Calm Calm - N/A   Overcast
3:15 PM 77.0 °F - 69.8 °F 78% 30.00 in 10.0 mi Calm Calm - N/A   Overcast
3:35 PM 78.8 °F - 71.6 °F 78% 30.00 in 10.0 mi Calm Calm - N/A   Overcast
3:55 PM 78.8 °F - 71.6 °F 78% 30.00 in 10.0 mi Calm Calm - N/A   Overcast
4:15 PM 78.8 °F - 69.8 °F 74% 30.00 in 10.0 mi Calm Calm - N/A   Mostly Cloudy
4:35 PM 78.8 °F - 71.6 °F 78% 30.00 in 5.0 mi Calm Calm - N/A Rain Heavy Rain
4:55 PM 77.0 °F - 71.6 °F 83% 30.00 in 5.0 mi Calm Calm - N/A Rain Light Rain
5:15 PM 78.8 °F - 71.6 °F 78% 30.00 in 10.0 mi Calm Calm - N/A   Overcast
5:35 PM 75.2 °F - 71.6 °F 89% 30.00 in 3.0 mi Calm Calm - N/A Rain Heavy Rain
5:55 PM 77.0 °F - 73.4 °F 89% 30.00 in 7.0 mi Calm Calm - N/A Rain Light Rain
6:15 PM 77.0 °F - 73.4 °F 89% 30.00 in 10.0 mi Calm Calm - N/A   Scattered Clouds
6:35 PM 78.8 °F - 73.4 °F 83% 30.00 in 10.0 mi Calm Calm - N/A   Scattered Clouds
6:55 PM 78.8 °F - 73.4 °F 83% 30.00 in 10.0 mi Calm Calm - N/A   Scattered Clouds
7:15 PM 77.0 °F - 71.6 °F 83% 30.00 in 10.0 mi Calm Calm - N/A   Scattered Clouds
7:55 PM 77.0 °F - 71.6 °F 83% 30.00 in 10.0 mi Calm Calm - N/A   Scattered Clouds
8:15 PM 75.2 °F - 71.6 °F 89% 30.00 in 10.0 mi Calm Calm - N/A   Scattered Clouds
8:35 PM 75.2 °F - 71.6 °F 89% 30.00 in 10.0 mi Calm Calm - N/A   Clear
8:55 PM 73.4 °F - 71.6 °F 94% 30.01 in 10.0 mi Calm Calm - N/A   Scattered Clouds
9:15 PM 73.4 °F - 71.6 °F 94% 30.01 in 10.0 mi Calm Calm - N/A   Scattered Clouds
9:55 PM 73.4 °F - 69.8 °F 88% 30.04 in 10.0 mi Calm Calm - N/A   Mostly Cloudy
10:15 PM 73.4 °F - 69.8 °F 88% 30.05 in 10.0 mi Calm Calm - N/A   Overcast
10:35 PM 73.4 °F - 69.8 °F 88% 30.05 in 10.0 mi Calm Calm - N/A   Overcast
10:55 PM 73.4 °F - 69.8 °F 88% 30.05 in 10.0 mi Calm Calm - N/A   Overcast
11:15 PM 73.4 °F - 69.8 °F 88% 30.05 in 10.0 mi Calm Calm - N/A   Overcast
11:35 PM 73.4 °F - 69.8 °F 88% 30.05 in 10.0 mi Calm Calm - N/A   Overcast
11:55 PM 71.6 °F - 69.8 °F 94% 30.05 in 10.0 mi Calm Calm - N/A   Mostly Cloudy